Tracking 18843 objects as of 20-November-2017
HD Live streaming from Space Station
objects crossing your sky now

MOLNIYA 1-81

Track MOLNIYA 1-81 now!
MOLNIYA 1-81 is classified as:


NORAD ID: 21426
Int'l Code: 1991-043A
Perigee: 2,175.8 km
Apogee: 38,195.8 km
Inclination: 63.6 °
Period: 717.8 minutes
Semi major axis: 26556 km
RCS: 14.841 m2 (large)
Launch date: June 18, 1991
Source: Commonwealth of Independent States (former USSR) (CIS)
Launch site: TYURATAM MISSILE AND SPACE COMPLEX (TTMTR)
aabbcc
Your satellite tracking list
Your tracking list is empty




NASA's NSSDC Master Catalog

Two Line Element Set (TLE):
1 21426U 91043A   17323.64634550 +.00000149 +00000-0 +00000-0 0  9995
2 21426 063.6476 178.5154 6781695 279.5619 015.4104 02.00603926193647
Source of the keplerian elements: AFSPC